Location: Newark
(41.8922°N, 9.0050°E)
Time: 15:51:59
(UTC+00:00)

ISS - Pass Details

Date: 30 January 2020
Orbit: 416 x 422 km, 51.6° (Epoch: 17 February)

Event Time Altitude Azimuth Distance (km) Brightness Sun altitude
Rises 17:27:18 0° 295° (WNW) 2,377 0.9 -9.9°
Reaches altitude 10° 17:30:03 10° 319° (NW) 1,511 -0.6 -10.4°
Maximum altitude 17:32:12 16° 358° (N) 1,212 -1.5 -10.8°
Enters shadow 17:34:09 11° 35° (NE) 1,462 -1.5 -11.1°
